Taos, NM

12:48 AM MDT on August 17, 2017 (GMT -0600)
Taos Municipal

Weather History for KSKX - January, 2012

Change the Weather History Date:

Sunday, January 22, 2012

  Actual Average Record
Temperature  
Mean Temperature 31 °F -  
Max Temperature 41 °F 40 °F 51 °F (2003)
Min Temperature 21 °F 12 °F 0 °F (2006)
Degree Days  
Heating Degree Days 34    
Moisture  
Dew Point 20 °F    
Average Humidity 64    
Maximum Humidity 86    
Minimum Humidity 39    
Precipitation  
Precipitation 0.00 in - - ()
Sea Level Pressure  
Sea Level Pressure 29.85 in    
Wind  
Wind Speed 13 mph (WSW)    
Max Wind Speed 22 mph    
Max Gust Speed 30 mph    
Visibility 10 miles    
Events      
Averages and records for this station are not official NWS values.
T = Trace of Precipitation, MM = Missing Value Source: NWS Daily Summary

Daily Weather History Graph

Daily Weather History Graph

Search for Another Location

Airport or City:

Trip Planner

Search our weather history database for the weather conditions in past years. The results will help you decide how hot, cold, wet, or windy it might be!

Date:

Astronomy

Jan. 22, 2012 Rise Set
Actual Time 7:11 AM MST 5:17 PM MST
Civil Twilight 6:43 AM MST 5:45 PM MST
Nautical Twilight 6:11 AM MST 6:16 PM MST
Astronomical Twilight 5:41 AM MST 6:47 PM MST
Moon 6:29 AM MST (1/22) 5:02 PM MST (1/22)
Length of Visible Light 11h 02m
Length of Day
10h 06m
Waning Crescent, 0% of the Moon is Illuminated
Jan 22
Waning Crescent
Jan 23
New
Jan 30
First Quarter
Feb 7
Full
Feb 14
Last Quarter

Hourly Weather History & Observations

Time (MST) Temp. Windchill Dew Point Humidity Pressure Visibility Wind Dir Wind Speed Gust Speed Precip Events Conditions
12:15 AM 33.8 °F 21.9 °F 28.4 °F 81% 29.64 in 3.0 mi WSW 21.9 mph 29.9 mph N/A   Overcast
12:35 AM 33.8 °F 22.8 °F 28.4 °F 81% 29.65 in 7.0 mi West 18.4 mph 24.2 mph N/A   Mostly Cloudy
12:55 AM 32.0 °F 22.1 °F 26.6 °F 80% 29.64 in 8.0 mi West 13.8 mph 19.6 mph N/A   Overcast
1:15 AM 30.2 °F 19.8 °F 26.6 °F 86% 29.65 in 10.0 mi West 13.8 mph 23.0 mph N/A   Mostly Cloudy
1:35 AM 30.2 °F 21.3 °F 24.8 °F 80% 29.66 in 10.0 mi West 10.4 mph - N/A   Mostly Cloudy
1:55 AM 30.2 °F 21.3 °F 26.6 °F 86% 29.64 in 10.0 mi SW 10.4 mph - N/A   Mostly Cloudy
2:15 AM 30.2 °F 19.8 °F 26.6 °F 86% 29.65 in 10.0 mi SW 13.8 mph 18.4 mph N/A   Overcast
2:35 AM 28.4 °F 17.5 °F 24.8 °F 86% 29.65 in 10.0 mi SSW 13.8 mph - N/A   Overcast
2:55 AM 28.4 °F 19.1 °F 24.8 °F 86% 29.64 in 10.0 mi WSW 10.4 mph - N/A   Mostly Cloudy
3:15 AM 30.2 °F 19.3 °F 23.0 °F 75% 29.63 in 10.0 mi West 15.0 mph 19.6 mph N/A   Overcast
3:35 AM 28.4 °F 15.8 °F 21.2 °F 74% 29.59 in 5.0 mi SW 18.4 mph - N/A   Mostly Cloudy
3:55 AM 28.4 °F 14.7 °F 21.2 °F 74% 29.59 in 10.0 mi SW 21.9 mph 27.6 mph N/A   Mostly Cloudy
4:15 AM 28.4 °F 16.6 °F 21.2 °F 74% 29.59 in 10.0 mi SW 16.1 mph 20.7 mph N/A   Mostly Cloudy
4:35 AM 28.4 °F 18.5 °F 21.2 °F 74% 29.60 in 10.0 mi SW 11.5 mph - N/A   Mostly Cloudy
4:55 AM 28.4 °F 21.2 °F 21.2 °F 74% 29.62 in 10.0 mi WSW 6.9 mph 19.6 mph N/A   Overcast
5:15 AM 28.4 °F 18.5 °F 21.2 °F 74% 29.63 in 10.0 mi South 11.5 mph - N/A   Overcast
5:35 AM 28.4 °F 16.2 °F 23.0 °F 80% 29.63 in 10.0 mi SSW 17.3 mph - N/A   Overcast
5:55 AM 28.4 °F 18.5 °F 21.2 °F 74% 29.65 in 10.0 mi SW 11.5 mph - N/A   Overcast
6:15 AM 28.4 °F 17.5 °F 21.2 °F 74% 29.66 in 10.0 mi SSW 13.8 mph 18.4 mph N/A   Overcast
6:35 AM 28.4 °F 18.0 °F 21.2 °F 74% 29.67 in 10.0 mi SW 12.7 mph - N/A   Overcast
6:55 AM 28.4 °F 18.0 °F 21.2 °F 74% 29.68 in 10.0 mi SW 12.7 mph 16.1 mph N/A   Overcast
7:15 AM 28.4 °F 19.1 °F 21.2 °F 74% 29.70 in 10.0 mi SW 10.4 mph - N/A   Mostly Cloudy
7:55 AM 28.4 °F 20.4 °F 21.2 °F 74% 29.74 in 10.0 mi WSW 8.1 mph - N/A   Overcast
8:15 AM 28.4 °F 18.0 °F 19.4 °F 69% 29.75 in 10.0 mi WSW 12.7 mph - N/A   Mostly Cloudy
8:35 AM 28.4 °F 20.4 °F 19.4 °F 69% 29.78 in 10.0 mi WSW 8.1 mph - N/A   Partly Cloudy
8:55 AM 32.0 °F 24.8 °F 21.2 °F 64% 29.80 in 10.0 mi SW 8.1 mph - N/A   Clear
9:15 AM 33.8 °F 25.8 °F 23.0 °F 65% 29.82 in 10.0 mi SW 10.4 mph - N/A   Mostly Cloudy
9:35 AM 33.8 °F 28.6 °F 19.4 °F 56% 29.83 in 10.0 mi NNW 5.8 mph - N/A   Scattered Clouds
9:55 AM 33.8 °F 27.7 °F 19.4 °F 56% 29.85 in 10.0 mi NW 6.9 mph - N/A   Partly Cloudy
10:15 AM 35.6 °F 29.2 °F 17.6 °F 48% 29.86 in 10.0 mi North 8.1 mph - N/A   Scattered Clouds
10:35 AM 37.4 °F 31.4 °F 19.4 °F 48% 29.86 in 10.0 mi WNW 8.1 mph - N/A   Scattered Clouds
10:55 AM 39.2 °F 33.0 °F 19.4 °F 45% 29.87 in 10.0 mi WNW 9.2 mph - N/A   Mostly Cloudy
11:15 AM 39.2 °F 32.0 °F 19.4 °F 45% 29.88 in 10.0 mi West 11.5 mph 18.4 mph N/A   Mostly Cloudy
11:35 AM 39.2 °F 32.0 °F 19.4 °F 45% 29.88 in 10.0 mi WNW 11.5 mph - N/A   Mostly Cloudy
11:55 AM 39.2 °F 32.5 °F 21.2 °F 49% 29.87 in 10.0 mi WSW 10.4 mph - N/A   Scattered Clouds
12:15 PM 39.2 °F 32.0 °F 23.0 °F 52% 29.87 in 10.0 mi West 11.5 mph - N/A   Clear
12:35 PM 39.2 °F 30.5 °F 21.2 °F 49% 29.86 in 10.0 mi WSW 16.1 mph - N/A   Clear
12:55 PM 41.0 °F 35.8 °F 17.6 °F 39% 29.86 in 10.0 mi WNW 8.1 mph - N/A   Clear
1:15 PM 39.2 °F 31.2 °F 23.0 °F 52% 29.85 in 10.0 mi WSW 13.8 mph 23.0 mph N/A   Partly Cloudy
1:35 PM 39.2 °F 29.6 °F 21.2 °F 49% 29.86 in 10.0 mi WSW 19.6 mph 27.6 mph N/A   Mostly Cloudy
2:15 PM 41.0 °F 32.2 °F 19.4 °F 42% 29.89 in 10.0 mi West 18.4 mph 23.0 mph N/A   Clear
2:35 PM 41.0 °F 32.2 °F 19.4 °F 42% 29.90 in 10.0 mi West 18.4 mph 24.2 mph N/A   Clear
2:55 PM 39.2 °F 29.6 °F 19.4 °F 45% 29.91 in 10.0 mi West 19.6 mph 25.3 mph N/A   Clear
3:15 PM 37.4 °F 27.5 °F 19.4 °F 48% 29.93 in 10.0 mi West 18.4 mph 24.2 mph N/A   Clear
3:35 PM 37.4 °F 29.3 °F 19.4 °F 48% 29.95 in 10.0 mi West 12.7 mph 20.7 mph N/A   Clear
3:55 PM 37.4 °F 28.9 °F 17.6 °F 45% 29.96 in 10.0 mi West 13.8 mph - N/A   Clear
4:15 PM 37.4 °F 30.3 °F 17.6 °F 45% 29.98 in 10.0 mi West 10.4 mph - N/A   Clear
4:35 PM 35.6 °F 28.0 °F 17.6 °F 48% 30.00 in 10.0 mi West 10.4 mph - N/A   Clear
5:15 PM 33.8 °F 27.0 °F 15.8 °F 48% 30.03 in 10.0 mi West 8.1 mph - N/A   Clear
5:35 PM 30.2 °F 23.4 °F 17.6 °F 60% 30.04 in 10.0 mi West 6.9 mph - N/A   Clear
5:55 PM 30.2 °F 24.3 °F 15.8 °F 55% 30.05 in 10.0 mi West 5.8 mph - N/A   Clear
6:15 PM 28.4 °F 21.2 °F 17.6 °F 64% 30.07 in 10.0 mi SSW 6.9 mph - N/A   Clear
6:35 PM 28.4 °F 19.7 °F 17.6 °F 64% 30.08 in 10.0 mi SW 9.2 mph - N/A   Clear
6:55 PM 28.4 °F 19.1 °F 17.6 °F 64% 30.09 in 10.0 mi WSW 10.4 mph - N/A   Clear
7:15 PM 28.4 °F 19.7 °F 15.8 °F 59% 30.10 in 10.0 mi SW 9.2 mph - N/A   Clear
7:35 PM 28.4 °F 19.7 °F 15.8 °F 59% 30.10 in 10.0 mi SW 9.2 mph - N/A   Clear
7:55 PM 28.4 °F 19.1 °F 15.8 °F 59% 30.11 in 10.0 mi SW 10.4 mph - N/A   Clear
8:15 PM 26.6 °F 16.8 °F 15.8 °F 64% 30.12 in 10.0 mi WSW 10.4 mph - N/A   Clear
8:35 PM 26.6 °F 20.0 °F 17.6 °F 69% 30.12 in 10.0 mi WSW 5.8 mph - N/A   Clear
8:55 PM 26.6 °F 18.2 °F 17.6 °F 69% 30.12 in 10.0 mi WSW 8.1 mph - N/A   Clear
9:15 PM 24.8 °F 19.1 °F 17.6 °F 74% 30.12 in 10.0 mi SSW 4.6 mph - N/A   Clear
9:35 PM 24.8 °F 16.9 °F 15.8 °F 69% 30.12 in 10.0 mi SSW 6.9 mph - N/A   Clear
9:55 PM 24.8 °F 17.9 °F 15.8 °F 69% 30.13 in 10.0 mi SW 5.8 mph - N/A   Clear
10:15 PM 21.2 °F 13.6 °F 15.8 °F 80% 30.13 in 10.0 mi SSE 5.8 mph - N/A   Clear
10:35 PM 21.2 °F 13.6 °F 15.8 °F 80% 30.13 in 10.0 mi SSW 5.8 mph - N/A   Clear
10:55 PM 21.2 °F 16.4 °F 15.8 °F 80% 30.13 in 10.0 mi South 3.5 mph - N/A   Clear
11:15 PM 21.2 °F 13.6 °F 15.8 °F 80% 30.12 in 10.0 mi SE 5.8 mph - N/A   Clear
11:35 PM 21.2 °F 12.6 °F 15.8 °F 80% 30.12 in 10.0 mi SE 6.9 mph - N/A   Clear
11:55 PM 21.2 °F 12.6 °F 15.8 °F 80% 30.12 in 10.0 mi ESE 6.9 mph - N/A   Clear